Galesburg, IL

2:01 AM CST on February 21, 2017 (GMT -0600)
Galesburg Municipal

Weather History for KGBG - January, 2012

Change the Weather History Date:

Wednesday, January 4, 2012

  Actual Average Record
Temperature  
Mean Temperature 36 °F -  
Max Temperature 44 °F 29 °F 48 °F (1955)
Min Temperature 27 °F 11 °F -10 °F (1959)
Degree Days  
Heating Degree Days 30    
Moisture  
Dew Point 22 °F    
Average Humidity 58    
Maximum Humidity 81    
Minimum Humidity 40    
Precipitation  
Precipitation 0.00 in - - ()
Sea Level Pressure  
Sea Level Pressure 30.04 in    
Wind  
Wind Speed 8 mph (WSW)    
Max Wind Speed 17 mph    
Max Gust Speed 23 mph    
Visibility 10 miles    
Events      
Averages and records for this station are not official NWS values.
T = Trace of Precipitation, MM = Missing Value Source: NWS Daily Summary

Daily Weather History Graph

Daily Weather History Graph

Search for Another Location

Airport or City:

Trip Planner

Search our weather history database for the weather conditions in past years. The results will help you decide how hot, cold, wet, or windy it might be!

Date:

Astronomy

Jan. 04, 2012 Rise Set
Actual Time 7:26 AM CST 4:46 PM CST
Civil Twilight 6:55 AM CST 5:17 PM CST
Nautical Twilight 6:21 AM CST 5:51 PM CST
Astronomical Twilight 5:48 AM CST 6:25 PM CST
Moon 1:09 PM CST (1/4) 3:14 AM CST (1/4)
Length of Visible Light 10h 21m
Length of Day
9h 19m
Waxing Gibbous, 81% of the Moon is Illuminated
Jan 4
Waxing Gibbous
Jan 9
Full
Jan 16
Last Quarter
Jan 23
New
Jan 30
First Quarter

Hourly Weather History & Observations

Time (CST) Temp. Windchill Dew Point Humidity Pressure Visibility Wind Dir Wind Speed Gust Speed Precip Events Conditions
12:15 AM 33.1 °F 23.9 °F 11.3 °F 40% 29.97 in 10.0 mi South 12.7 mph - N/A   Clear
12:35 AM 33.4 °F 24.3 °F 11.8 °F 41% 29.96 in 10.0 mi South 12.7 mph - N/A   Clear
12:55 AM 33.8 °F 25.3 °F 13.1 °F 43% 29.96 in 10.0 mi South 11.5 mph - N/A   Clear
1:15 AM 33.3 °F 25.1 °F 13.5 °F 44% 29.95 in 10.0 mi South 10.4 mph - N/A   Clear
1:35 AM 32.9 °F 27.5 °F 14.0 °F 46% 29.96 in 10.0 mi SSW 5.8 mph - N/A   Clear
1:55 AM 32.9 °F 26.7 °F 14.9 °F 48% 29.96 in 10.0 mi South 6.9 mph - N/A   Clear
2:15 AM 32.5 °F 28.1 °F 15.8 °F 50% 29.95 in 10.0 mi South 4.6 mph - N/A   Clear
2:35 AM 33.1 °F 26.9 °F 16.5 °F 51% 29.95 in 10.0 mi South 6.9 mph - N/A   Clear
2:55 AM 33.8 °F 28.6 °F 16.9 °F 50% 29.95 in 10.0 mi South 5.8 mph - N/A   Clear
3:15 AM 33.8 °F 30.8 °F 17.8 °F 52% 29.95 in 10.0 mi South 3.5 mph - N/A   Clear
3:35 AM 34.0 °F - 18.3 °F 53% 29.95 in 10.0 mi Calm Calm - N/A   Clear
3:55 AM 34.0 °F - 18.7 °F 54% 29.96 in 10.0 mi Calm Calm - N/A   Clear
4:15 AM 32.9 °F 28.5 °F 19.4 °F 58% 29.95 in 10.0 mi South 4.6 mph - N/A   Clear
4:35 AM 32.0 °F - 19.4 °F 60% 29.95 in 10.0 mi Calm Calm - N/A   Clear
4:55 AM 31.6 °F 28.3 °F 19.4 °F 61% 29.95 in 10.0 mi South 3.5 mph - N/A   Clear
5:15 AM 30.7 °F 24.9 °F 19.4 °F 63% 29.95 in 10.0 mi South 5.8 mph - N/A   Clear
5:35 AM 30.2 °F 24.3 °F 19.4 °F 64% 29.94 in 10.0 mi South 5.8 mph - N/A   Clear
5:55 AM 29.8 °F 26.3 °F 19.0 °F 64% 29.96 in 10.0 mi SW 3.5 mph - N/A   Clear
6:15 AM 30.0 °F 26.5 °F 19.4 °F 65% 29.96 in 10.0 mi SSW 3.5 mph - N/A   Clear
6:35 AM 30.0 °F 26.5 °F 19.4 °F 65% 29.97 in 10.0 mi SSW 3.5 mph - N/A   Clear
6:55 AM 28.9 °F 23.9 °F 19.4 °F 68% 29.96 in 10.0 mi SSW 4.6 mph - N/A   Clear
7:15 AM 28.8 °F 25.0 °F 19.0 °F 67% 29.97 in 10.0 mi WSW 3.5 mph - N/A   Clear
7:35 AM 27.9 °F 20.6 °F 18.9 °F 69% 29.99 in 10.0 mi WSW 6.9 mph - N/A   Clear
7:55 AM 29.7 °F 22.0 °F 20.3 °F 68% 30.01 in 10.0 mi West 8.1 mph - N/A   Clear
8:15 AM 31.6 °F 22.6 °F 21.7 °F 67% 30.02 in 10.0 mi West 11.5 mph - N/A   Clear
8:35 AM 33.1 °F 27.7 °F 22.8 °F 66% 30.02 in 10.0 mi West 5.8 mph - N/A   Clear
8:55 AM 34.7 °F 28.1 °F 23.0 °F 62% 30.02 in 10.0 mi West 8.1 mph - N/A   Clear
9:15 AM 36.0 °F 26.7 °F 22.1 °F 57% 30.03 in 10.0 mi WNW 15.0 mph - N/A   Clear
9:35 AM 36.5 °F 27.8 °F 21.7 °F 55% 30.04 in 10.0 mi WNW 13.8 mph - N/A   Clear
9:55 AM 37.4 °F 30.8 °F 21.9 °F 54% 30.03 in 10.0 mi West 9.2 mph - N/A   Clear
10:15 AM 37.9 °F 30.0 °F 22.5 °F 54% 30.04 in 10.0 mi WNW 12.7 mph 18.4 mph N/A   Clear
10:35 AM 38.3 °F 30.1 °F 22.6 °F 53% 30.05 in 10.0 mi West 13.8 mph 19.6 mph N/A   Clear
10:55 AM 39.0 °F 31.0 °F 22.8 °F 52% 30.04 in 10.0 mi West 13.8 mph - N/A   Clear
11:15 AM 39.4 °F 31.8 °F 23.2 °F 52% 30.04 in 10.0 mi West 12.7 mph - N/A   Clear
11:35 AM 40.3 °F 32.6 °F 23.7 °F 52% 30.04 in 10.0 mi West 13.8 mph 19.6 mph N/A   Clear
11:55 AM 41.2 °F 34.5 °F 24.3 °F 51% 30.02 in 10.0 mi West 11.5 mph - N/A   Clear
12:15 PM 42.3 °F 34.1 °F 24.8 °F 50% 30.02 in 10.0 mi West 17.3 mph - N/A   Clear
12:35 PM 42.6 °F 34.9 °F 25.2 °F 50% 30.03 in 10.0 mi West 16.1 mph 23.0 mph N/A   Clear
12:55 PM 42.8 °F 35.4 °F 25.5 °F 51% 30.03 in 10.0 mi West 15.0 mph 21.9 mph N/A   Clear
1:15 PM 42.4 °F 34.7 °F 25.3 °F 51% 30.04 in 10.0 mi West 16.1 mph - N/A   Clear
1:35 PM 43.2 °F 35.6 °F 26.1 °F 51% 30.04 in 10.0 mi West 16.1 mph 20.7 mph N/A   Clear
1:55 PM 43.2 °F 35.6 °F 25.3 °F 49% 30.04 in 10.0 mi West 16.1 mph 21.9 mph N/A   Clear
2:15 PM 42.3 °F 35.1 °F 25.3 °F 51% 30.05 in 10.0 mi West 13.8 mph - N/A   Clear
2:35 PM 42.8 °F 36.6 °F 26.6 °F 53% 30.05 in 10.0 mi West 11.5 mph - N/A   Clear
2:55 PM 44.6 °F 37.8 °F 24.8 °F 46% 30.05 in 10.0 mi West 15.0 mph - N/A   Clear
3:15 PM 44.6 °F 38.1 °F 24.6 °F 45% 30.06 in 10.0 mi West 13.8 mph - N/A   Clear
3:35 PM 44.4 °F 38.6 °F 25.7 °F 48% 30.06 in 10.0 mi West 11.5 mph - N/A   Clear
3:55 PM 43.9 °F 37.9 °F 25.3 °F 48% 30.08 in 10.0 mi West 11.5 mph - N/A   Clear
4:15 PM 43.3 °F 38.1 °F 26.4 °F 51% 30.10 in 10.0 mi West 9.2 mph - N/A   Clear
4:35 PM 42.6 °F 37.2 °F 26.4 °F 53% 30.11 in 10.0 mi West 9.2 mph - N/A   Clear
4:55 PM 40.5 °F 35.8 °F 26.4 °F 57% 30.11 in 10.0 mi West 6.9 mph - N/A   Clear
5:15 PM 36.7 °F 30.5 °F 25.3 °F 64% 30.10 in 10.0 mi West 8.1 mph - N/A   Clear
5:35 PM 36.3 °F 30.8 °F 24.8 °F 63% 30.11 in 10.0 mi WSW 6.9 mph - N/A   Clear
5:55 PM 35.1 °F 31.0 °F 24.6 °F 66% 30.12 in 10.0 mi WSW 4.6 mph - N/A   Clear
6:15 PM 35.1 °F 29.3 °F 23.9 °F 64% 30.12 in 10.0 mi WSW 6.9 mph - N/A   Clear
6:35 PM 37.6 °F 33.1 °F 23.5 °F 57% 30.11 in 10.0 mi WSW 5.8 mph - N/A   Clear
6:55 PM 36.1 °F 29.9 °F 23.0 °F 59% 30.12 in 10.0 mi WSW 8.1 mph - N/A   Clear
7:15 PM 35.6 °F 29.2 °F 23.0 °F 60% 30.12 in 10.0 mi WSW 8.1 mph - N/A   Clear
7:35 PM 36.1 °F 31.4 °F 22.6 °F 58% 30.12 in 10.0 mi WSW 5.8 mph - N/A   Clear
7:55 PM 36.5 °F 32.7 °F 23.0 °F 58% 30.13 in 10.0 mi WSW 4.6 mph - N/A   Clear
8:15 PM 35.6 °F 30.7 °F 23.9 °F 62% 30.13 in 10.0 mi WSW 5.8 mph - N/A   Clear
8:35 PM 36.5 °F 32.7 °F 24.6 °F 62% 30.12 in 10.0 mi SW 4.6 mph - N/A   Clear
8:55 PM 34.7 °F - 24.6 °F 67% 30.12 in 10.0 mi Calm Calm - N/A   Clear
9:15 PM 32.4 °F - 24.8 °F 74% 30.12 in 10.0 mi Calm Calm - N/A   Clear
9:35 PM 32.0 °F - 24.6 °F 74% 30.11 in 10.0 mi Calm Calm - N/A   Clear
9:55 PM 29.1 °F - 24.1 °F 81% 30.11 in 10.0 mi Calm Calm - N/A   Clear
10:15 PM 31.1 °F 25.4 °F 24.8 °F 77% 30.10 in 10.0 mi SSW 5.8 mph - N/A   Clear
10:35 PM 31.6 °F 27.0 °F 24.8 °F 76% 30.10 in 10.0 mi SW 4.6 mph - N/A   Clear
10:55 PM 32.2 °F 27.7 °F 24.8 °F 74% 30.09 in 10.0 mi SW 4.6 mph - N/A   Clear
11:15 PM 32.0 °F 28.7 °F 24.8 °F 75% 30.08 in 10.0 mi SSW 3.5 mph - N/A   Clear
11:35 PM 33.1 °F 28.7 °F 25.2 °F 73% 30.07 in 10.0 mi SSW 4.6 mph - N/A   Clear
11:55 PM 32.9 °F 27.5 °F 25.3 °F 74% 30.05 in 10.0 mi SSW 5.8 mph - N/A   Clear